Location: Unspecified
(42.9300°N, 71.1866°W)
Time: 19:32:24
(UTC-04:00)

Cosmos 2058 - Visible Passes

Search period start: 29 June 2016 00:00
Search period end: 09 July 2016 00:00
Orbit: 564 x 587 km, 82.5° (Epoch: 29 June)

Date Brightness Start Highest point End Pass type
(mag) Time Alt. Az. Time Alt. Az. Time Alt. Az.
29 Jun 3.1 21:20:08 10° S 21:24:06 52° E 21:28:06 10° NNE visible
29 Jun 5.8 22:59:30 10° W 23:01:25 13° WNW 23:03:20 10° NW visible
30 Jun 2.8 21:23:39 10° S 21:27:43 72° E 21:31:50 10° NNE visible
01 Jul 2.9 21:27:16 10° S 21:31:21 83° W 21:35:29 10° N visible
02 Jul 3.4 21:30:59 10° SSW 21:35:01 61° W 21:39:06 10° N visible
03 Jul 4.1 21:34:46 10° SSW 21:38:42 44° WNW 21:42:39 10° N visible
04 Jul 4.7 21:38:41 10° SW 21:42:23 33° WNW 21:46:09 10° N visible
05 Jul 5.2 21:42:42 10° SW 21:46:07 25° WNW 21:49:33 10° NNW visible
06 Jul 5.7 21:46:52 10° WSW 21:49:51 19° WNW 21:52:52 10° NNW visible
07 Jul 5.9 21:51:15 10° WSW 21:53:37 15° WNW 21:56:00 10° NW visible
08 Jul 6.2 21:56:06 10° W 21:57:24 11° WNW 21:58:43 10° NW visible
